This is the latest recevied weather packets stored in our database for station/object TA3MHA. If no packets are shown the sender has not sent any weather packets the latest 10 day(s).
| Time | Temp. | Humidity | Pressure | Rain* | Wind** | Luminosity | Snow |
|---|---|---|---|---|---|---|---|
| 1777010101 | 11.11° C | 57% | - | 0 mm | - | 346 W/m² | - |
| 1777009801 | 10.56° C | 59% | - | 0 mm | - | 330 W/m² | - |
| 1777009501 | 10.56° C | 58% | - | 0 mm | - | 316 W/m² | - |
| 1777009201 | 10.56° C | 62% | - | 0 mm | - | 299 W/m² | - |
| 1777008900 | 9.44° C | 62% | - | 0 mm | - | 282 W/m² | - |
| 1777008601 | 9.44° C | 63% | - | 0 mm | - | 267 W/m² | - |
| 1777008300 | 9.44° C | 64% | - | 0 mm | - | 250 W/m² | - |
| 1777008001 | 8.89° C | 64% | - | 0 mm | - | 235 W/m² | - |
| 1777007701 | 8.89° C | 64% | - | 0 mm | - | 218 W/m² | - |
| 1777007400 | 8.89° C | 66% | - | 0 mm | - | 204 W/m² | - |
| 1777007101 | 8.89° C | 65% | - | 0 mm | - | 189 W/m² | - |
| 1777006801 | 8.89° C | 66% | - | 0 mm | - | 173 W/m² | - |
| 1777006500 | 8.33° C | 68% | - | 0 mm | - | 158 W/m² | - |
| 1777006200 | 8.33° C | 66% | - | 0 mm | - | 144 W/m² | - |
| 1777005901 | 7.78° C | 70% | - | 0 mm | - | 131 W/m² | - |
| 1777005601 | 7.78° C | 68% | - | 0 mm | - | 117 W/m² | - |
| 1777005300 | 7.22° C | 71% | - | 0 mm | - | 105 W/m² | - |
| 1777005000 | 6.67° C | 74% | - | 0 mm | - | 93 W/m² | - |
| 1777004701 | 6.11° C | 77% | - | 0 mm | - | 82 W/m² | - |
| 1777004400 | 6.11° C | 77% | - | 0 mm | - | 71 W/m² | - |
| 1777004100 | 5.56° C | 79% | - | 0 mm | - | 61 W/m² | - |
| 1777003801 | 5° C | 80% | - | 0 mm | - | 51 W/m² | - |
| 1777003501 | 4.44° C | 81% | - | 0 mm | - | 46 W/m² | - |
| 1777003200 | 4.44° C | 79% | - | 0 mm | - | 40 W/m² | - |
| 1777002901 | 5° C | 78% | - | 0 mm | - | 32 W/m² | - |
* Rain latest hour (hover to see other rain measurements)
** Current wind speed in m/s (hover to see current wind gust speed)